DW6942 Weather Reports


time (UTC)temp
C
wind
direction
speed
KPH
gust
KPH
rain 1hr
cm
rain 24hr
cm
rain mn
cm
humidity
%
barometer
mb
20260509224559 28 262 0.0 0.0 0.00 0.00 0.00 74 1009.2
20260509223059 28 262 0.0 0.0 0.00 0.00 0.00 74 1009.1
20260509221603 30 262 0.0 0.0 0.00 0.00 0.00 71 1008.9
20260509220052 31 262 0.0 0.0 0.00 0.00 0.00 66 1009.0
20260509214556 31 115 0.0 3.2 0.00 0.00 0.00 65 1009.1
20260509213050 31 267 0.0 1.6 0.00 0.00 0.00 67 1009.0
20260509211548 30 124 0.0 1.6 0.00 0.00 0.00 68 1009.2
20260509210052 31 141 1.6 4.8 0.00 0.00 0.00 66 1009.3
20260509204546 31 268 0.0 4.8 0.00 0.00 0.00 65 1009.5
20260509203041 32 241 0.0 4.8 0.00 0.00 0.00 65 1009.6
20260509201547 31 217 0.0 1.6 0.00 0.00 0.00 70 1009.8
20260509200039 31 225 0.0 0.0 0.00 0.00 0.00 69 1010.0
20260509194533 31 139 0.0 6.4 0.00 0.00 0.00 68 1010.3
20260509193032 30 51 0.0 6.4 0.00 0.00 0.00 69 1010.3
20260509191530 30 143 1.6 3.2 0.00 0.00 0.00 70 1010.5
20260509190028 31 221 0.0 4.8 0.00 0.00 0.00 68 1010.7
20260509184527 30 83 0.0 4.8 0.00 0.00 0.00 71 1010.9
20260509183024 30 167 0.0 4.8 0.00 0.00 0.00 70 1011.1
20260509181521 29 138 0.0 1.6 0.00 0.00 0.00 72 1011.4
20260509180020 29 131 1.6 4.8 0.00 0.00 0.00 72 1011.6
20260509174517 28 207 0.0 1.6 0.00 0.00 0.00 76 1011.8
20260509173016 28 219 0.0 4.8 0.00 0.00 0.00 75 1011.8
20260509171525 28 225 0.0 1.6 0.00 0.00 0.00 77 1011.6
20260509170024 27 107 0.0 0.0 0.00 0.00 0.00 79 1011.6
20260509164507 26 243 0.0 4.8 0.00 0.00 0.00 80 1011.8
20260509163008 26 148 0.0 6.4 0.00 0.00 0.00 83 1011.5
20260509161504 25 243 0.0 1.6 0.00 0.00 0.00 84 1011.9
20260509160100 25 260 0.0 4.8 0.00 0.00 0.00 85 1012.0
20260509154601 25 132 0.0 3.2 0.00 0.00 0.00 85 1012.2
20260509153100 25 136 0.0 6.4 0.00 0.00 0.00 86 1012.2
20260509151555 25 118 0.0 3.2 0.00 0.00 0.00 87 1012.2
20260509150052 24 119 0.0 4.8 0.00 0.00 0.00 88 1012.1
20260509144550 -17 0.0 0.0 0.00 0.00 0.00 1012.0
20260509143045 -17 0.0 0.0 0.00 0.00 0.00 1011.9
20260509141540 -17 0.0 0.0 0.00 0.00 0.00 1011.4
20260509140036 -17 0.0 0.0 0.00 0.00 0.00 1011.7
20260509134537 -17 0.0 0.0 0.00 0.00 0.00 1011.7
20260509133027 -17 0.0 0.0 0.00 0.00 0.00 1012.0
20260509131531 -17 0.0 0.0 0.00 0.00 0.00 1012.3
20260509130019 -17 0.0 0.0 0.00 0.00 0.00 1011.9
20260509124519 -17 0.0 0.0 0.00 0.00 0.00 1012.0
20260509123009 -17 0.0 0.0 0.00 0.00 0.00 1012.2
20260509121509 -17 0.0 0.0 0.00 0.00 0.00 1011.8
20260509120100 -17 0.0 0.0 0.00 0.00 0.00 1011.6
20260509114558 -17 0.0 0.0 0.00 0.00 0.00 1011.4
20260509113056 -17 0.0 0.0 0.00 0.00 0.00 1011.5
20260509111548 -17 0.0 0.0 0.00 0.00 0.00 1011.5
20260509110042 -17 0.0 0.0 0.00 0.00 0.00 1011.6
20260509104538 -17 0.0 0.0 0.00 0.00 0.00 1011.8
20260509103034 -17 0.0 0.0 0.00 0.00 0.00 1011.6
20260509101536 -17 0.0 0.0 0.00 0.00 0.00 1011.4
20260509100026 -17 0.0 0.0 0.00 0.00 0.00 1010.9
20260509094522 -17 0.0 0.0 0.00 0.00 0.00 1010.7
20260509093019 -17 220 0.0 0.0 0.00 0.00 0.00 89 1011.2
20260509091519 22 221 0.0 0.0 0.00 0.00 0.00 89 1011.2
20260509090014 22 221 0.0 0.0 0.00 0.00 0.00 89 1011.2
20260509084516 22 221 0.0 0.0 0.00 0.00 0.00 89 1011.5
20260509083018 22 221 0.0 0.0 0.00 0.00 0.00 89 1011.5
20260509081513 22 221 0.0 0.0 0.00 0.00 0.00 89 1011.5
20260509080012 22 221 0.0 0.0 0.00 0.00 0.00 89 1011.3
20260509074511 22 221 0.0 0.0 0.00 0.00 0.00 89 1011.3
20260509073011 22 175 0.0 0.0 0.00 0.00 0.00 89 1011.1
20260509071509 22 175 0.0 0.0 0.00 0.00 0.00 89 1011.3
20260509070008 22 145 0.0 1.6 0.00 0.00 0.00 89 1011.3
20260509064507 22 146 0.0 1.6 0.00 0.00 0.00 89 1011.4
20260509063006 22 212 0.0 0.0 0.00 0.00 0.00 89 1011.4
20260509061504 22 141 0.0 0.0 0.00 0.00 0.00 89 1011.8
20260509060003 22 135 0.0 0.0 0.00 0.00 0.00 89 1011.9
20260509054503 22 135 0.0 3.2 0.00 0.00 0.00 89 1011.9
20260509053003 22 212 0.0 1.6 0.00 0.00 0.00 89 1012.0
20260509051501 22 224 0.0 3.2 0.00 0.00 0.00 89 1012.0
20260509050108 22 116 0.0 4.8 0.00 0.00 0.00 89 1011.8
20260509044558 22 105 0.0 1.6 0.00 0.00 0.00 89 1012.1
20260509043105 22 136 0.0 1.6 0.00 0.00 0.00 88 1011.9
20260509041557 22 142 0.0 1.6 0.00 0.00 0.00 88 1012.0
20260509040056 22 139 0.0 3.2 0.00 0.00 0.00 88 1012.0
20260509034556 22 133 0.0 3.2 0.00 0.00 0.00 88 1011.6
20260509033056 22 235 0.0 4.8 0.00 0.00 0.00 88 1011.7
20260509031557 22 263 0.0 1.6 0.00 0.00 0.00 88 1011.6
20260509030053 22 124 0.0 1.6 0.00 0.00 0.00 87 1011.6
20260509024553 22 125 0.0 4.8 0.00 0.00 0.00 87 1011.3
20260509023052 22 189 0.0 0.0 0.00 0.00 0.00 87 1011.2
20260509021552 22 139 0.0 3.2 0.00 0.00 0.00 87 1011.0
20260509020051 22 131 0.0 4.8 0.00 0.00 0.00 87 1011.0
20260509014551 22 241 0.0 3.2 0.00 0.00 0.00 86 1010.8
20260509013055 22 158 0.0 3.2 0.00 0.00 0.00 85 1011.1
20260509011549 22 180 0.0 4.8 0.00 0.00 0.00 85 1010.8
20260509010048 23 164 1.6 9.7 0.00 0.00 0.00 84 1010.7
20260509004601 23 260 0.0 9.7 0.00 0.00 0.00 83 1010.6
20260509003046 23 181 0.0 9.7 0.00 0.00 0.00 83 1010.6
20260509001551 23 215 1.6 8.0 0.00 0.00 0.00 82 1010.9
20260509000045 24 119 0.0 1.6 0.00 0.00 0.00 81 1010.9
20260508234544 24 240 0.0 3.2 0.00 0.00 0.00 81 1010.8
20260508233043 24 122 0.0 4.8 0.00 0.00 0.00 81 1011.0
20260508231542 24 231 1.6 8.0 0.00 0.00 0.00 81 1011.0
20260508230041 24 219 0.0 8.0 0.00 0.00 0.00 80 1010.9